[[{"header":{"parameterUnit":"m.s-1","parameterCategory":1,"la1":30.2992,"la2":30.254,"lo1":-89.0895,"lo2":-89.0443,"dy":0.0025,"dx":0.0025,"nx":19,"ny":19,"refTime":"2026-05-16T09:00:00:Z","depth":0,"parameterNumber":2,"parameterNumberName":"U-component_of_WINDS"},"data":[0,0,0,-0.4919,-0.4919,-0.4925,-0.4925,-0.4937,-0.4937,0,0,0,0,0,0,0,0,0,0,0,-0.4919,-0.4919,-0.4919,-0.4919,-0.4925,-0.4925,-0.4937,-0.4937,0,0,0,0,0,0,0,0,0,0,0,-0.4919,-0.4919,-0.4919,-0.4919,-0.4925,-0.4925,-0.4937,-0.4931,0,0,0,0,0,0,0,0,0,0,-0.4924,-0.4926,-0.4919,-0.4919,-0.4919,-0.4925,-0.4925,-0.493,-0.4931,-0.4935,0,-0.4939,0,-0.4938,-0.4938,-0.4938,0,0,0,-0.4918,-0.4925,-0.4925,-0.4919,-0.4919,-0.4925,-0.4922,-0.4931,-0.4932,-0.4936,-0.4939,-0.4939,-0.4938,-0.4938,-0.4938,-0.4966,-0.4966,0,0,-0.4918,-0.4921,-0.4925,-0.4926,-0.4924,-0.4922,-0.4922,-0.4931,-0.4935,-0.4939,-0.494,-0.4938,-0.4938,-0.4938,-0.4965,-0.4966,0,0,0,-0.4917,-0.4921,-0.492,-0.4925,-0.4926,-0.4922,-0.4923,-0.4934,-0.4934,-0.494,-0.4939,-0.4938,-0.4938,-0.4965,-0.4966,-0.4979,0,0,0,-0.4917,-0.492,-0.492,-0.4922,-0.4926,-0.493,-0.4925,-0.4933,-0.4934,-0.4938,-0.4938,-0.4938,-0.4965,-0.4965,-0.4978,-0.4985,0,0,0,-0.4918,-0.4921,-0.4922,-0.4923,-0.4925,-0.493,-0.493,-0.4933,-0.4934,-0.4938,-0.4938,-0.4965,-0.4965,-0.4977,-0.4983,-0.4994,0,0,0,-0.492,-0.4932,-0.4922,-0.4936,-0.4925,-0.4937,-0.493,-0.4939,-0.4944,-0.4938,-0.4965,-0.4966,-0.4977,-0.4983,-0.4993,-0.5005,-0.5009,0,0,-0.4938,-0.4935,-0.4943,-0.4934,-0.4949,-0.4936,-0.4954,-0.4955,-0.4952,-0.4962,-0.4962,-0.4978,-0.4983,-0.4994,-0.5032,-0.5035,0,0,0,-0.495,-0.4956,-0.4959,-0.4964,-0.4966,-0.4969,-0.4967,-0.4968,-0.4976,-0.4958,-0.4984,-0.4987,-0.4993,-0.4999,-0.5002,-0.5008,-0.4968,-0.4968,-0.4968,-0.498,-0.4977,-0.4991,-0.4989,-0.4994,-0.4993,-0.4997,-0.4998,-0.4992,-0.4999,-0.5002,-0.5025,-0.5031,-0.5034,-0.504,-0.5006,-0.5006,-0.5007,-0.5007,-0.5008,-0.5017,-0.501,-0.5021,-0.5018,-0.5027,-0.5028,-0.5023,-0.5033,-0.5022,-0.5027,-0.5018,-0.5038,-0.5043,-0.5007,-0.5007,-0.5007,-0.5007,-0.5007,-0.5029,-0.5033,-0.5033,-0.5042,-0.5049,-0.5046,-0.5055,-0.5051,-0.5048,-0.5053,-0.5057,-0.5057,-0.5058,-0.5055,-0.5055,-0.5055,-0.5055,-0.5055,-0.5055,-0.505,-0.5051,-0.5059,-0.5063,-0.5067,-0.5072,-0.5072,-0.5076,-0.5079,-0.5076,-0.5076,-0.5071,-0.504,-0.5033,-0.5057,-0.5056,-0.5056,-0.5056,-0.5056,-0.5082,-0.5074,-0.5087,-0.5091,-0.5097,-0.5105,-0.51,-0.5108,-0.5111,-0.5116,-0.511,-0.5088,-0.5084,-0.5082,-0.5077,-0.511,-0.511,-0.511,-0.511,-0.51,-0.5098,-0.5112,-0.5119,-0.5125,-0.5122,-0.5139,-0.514,-0.5139,-0.5141,-0.5136,-0.5128,-0.5125,-0.5123,-0.512,-0.5115,-0.5157,-0.5157,-0.5157,-0.512,-0.5119,-0.5133,-0.5133,-0.5137,-0.5141,-0.5158,-0.5167,-0.5164,-0.5159,-0.5143,-0.5141,-0.5128,-0.5124,-0.5119,-0.5113,-0.5104,0,0]},{"header":{"parameterUnit":"m.s-1","parameterCategory":1,"la1":30.2992,"la2":30.254,"lo1":-89.0895,"lo2":-89.0443,"dy":0.0025,"dx":0.0025,"nx":19,"ny":19,"refTime":"2026-05-16T09:00:00:Z","depth":0,"parameterNumber":3,"parameterNumberName":"V-component_of_WINDS"},"data":[0,0,0,3.3569,3.357,3.3591,3.3591,3.3641,3.3641,0,0,0,0,0,0,0,0,0,0,0,3.3578,3.3579,3.3569,3.357,3.3591,3.3591,3.3641,3.3641,0,0,0,0,0,0,0,0,0,0,0,3.3578,3.3579,3.358,3.357,3.3591,3.3591,3.364,3.3616,0,0,0,0,0,0,0,0,0,0,3.3592,3.3616,3.3579,3.358,3.357,3.3591,3.3591,3.3615,3.3618,3.3642,0,3.3668,0,3.3656,3.3646,3.3647,0,0,0,3.3558,3.3614,3.3605,3.358,3.3571,3.3591,3.3578,3.3616,3.362,3.3646,3.3669,3.367,3.3657,3.3647,3.3647,3.3825,3.3826,0,0,3.3557,3.3591,3.3603,3.3608,3.3608,3.3578,3.3579,3.3618,3.3644,3.3669,3.3671,3.3657,3.3647,3.3648,3.3824,3.3825,0,0,0,3.3562,3.359,3.358,3.3607,3.3609,3.3578,3.358,3.3643,3.3637,3.3671,3.3658,3.3648,3.3649,3.3822,3.3824,3.3923,0,0,0,3.356,3.3593,3.358,3.3601,3.3609,3.3626,3.3605,3.3634,3.3637,3.3658,3.3648,3.3649,3.3821,3.3823,3.3917,3.3964,0,0,0,3.3572,3.3594,3.3602,3.3603,3.3613,3.3625,3.3621,3.3634,3.363,3.3647,3.3649,3.3819,3.3823,3.3912,3.3955,3.4019,0,0,0,3.3593,3.3692,3.3605,3.3709,3.3613,3.3687,3.362,3.3673,3.37,3.3648,3.3821,3.3824,3.391,3.395,3.4014,3.4078,3.4108,0,0,3.3736,3.371,3.3769,3.3691,3.3789,3.3681,3.3792,3.3785,3.3757,3.3803,3.3807,3.3919,3.3955,3.4018,3.4269,3.4294,0,0,0,3.3825,3.3867,3.3886,3.3912,3.3909,3.3908,3.388,3.3877,3.3915,3.3788,3.3959,3.3979,3.4015,3.4044,3.4065,3.4092,3.3839,3.3839,3.3839,3.4074,3.4031,3.4124,3.4083,3.411,3.4078,3.4095,3.4085,3.4035,3.4076,3.409,3.4247,3.4283,3.4298,3.4327,3.4121,3.4122,3.4122,3.4122,3.4277,3.4329,3.4259,3.4324,3.4277,3.4331,3.4304,3.4266,3.4308,3.4234,3.4263,3.4185,3.4326,3.4349,3.4129,3.4128,3.4127,3.4127,3.4126,3.4434,3.4452,3.4446,3.4477,3.4505,3.446,3.4503,3.446,3.4419,3.4448,3.4456,3.4454,3.4445,3.4455,3.4456,3.4457,3.4457,3.4457,3.4458,3.4599,3.4589,3.4631,3.4633,3.4643,3.465,3.4618,3.4626,3.4623,3.4588,3.4588,3.4532,3.4348,3.4302,3.4466,3.4464,3.4463,3.4463,3.4462,3.4819,3.4761,3.4826,3.4835,3.4833,3.4863,3.4806,3.4826,3.4826,3.4848,3.4786,3.4658,3.4628,3.4611,3.4572,3.4797,3.4797,3.4797,3.4797,3.495,3.493,3.4984,3.5002,3.5014,3.4969,3.5041,3.5016,3.4982,3.4979,3.4941,3.4886,3.4871,3.485,3.4828,3.4791,3.5065,3.5066,3.5066,3.5081,3.506,3.513,3.5095,3.509,3.5085,3.5151,3.5173,3.5122,3.5076,3.4975,3.4964,3.4875,3.4849,3.4799,3.4766,3.4697,0,0]}]]